STARLINK-2065 (47672 NORAD) Tracking and Keplerian Element Data
This shows tracking and keplerian element data for the satellite.
Feedback or suggestion? Click here.
Element | Value |
Catalog | 47672 |
Name | STARLINK-2065 |
Epoch Orbit | 178 |
Epoch Day | 59.91667824 |
Epoch Year | 2021 |
RAAN | 38.0949 |
Inclination | 53.0497 |
Eccentricity | 0.0001759 |
Argument of Perigee | 108.2637 |
Mean Anonmoly | 23.9996 |
Mean Motion | 15.86603302 |
Decay Rate | 0.00094838 |
L1 | 1 47672U 21012BE 21059.91667824 .00094838 00000-0 36497-3 0 9996 |
L2 | 2 47672 53.0497 38.0949 0001759 108.2637 23.9996 15.86603302 1786 |
Live tracking and technical data element details for STARLINK-2065 (NORAD 47672). STARLINK-2065 can be tracked NOW for your location showing map with azimuth and elevation plus other details from your city location.
Track the satellite on the map from your city or location and see movement details for azimuth, elevation, latitude, longitude, range, height, and movement on the map or in text.
IsCatalogInMostPopularTable: catalog: 47672, numindb: 4
Update: records affected: 1
GetName: 47672 STARLINK-2065
Hit Count: updated at: Mon, 01 Mar 2021 16:21:42 GMT